Time,TemperatureF,DewpointF,PressureIn,WindDirection,WindDirectionDegrees,WindSpeedMPH,WindSpeedGustMPH,Humidity,HourlyPrecipIn,Conditions,Clouds,dailyrainin,SolarRadiationWatts/m^2,SoftwareType,DateUTC
2013-11-08 00:05:00,69.3,63.9,29.95,NW,304,5.0,7.0,83,0.00,,,0.00,0,Wunderground v.1.15,2013-11-08 05:05:00,
2013-11-08 00:10:00,69.3,63.6,29.95,NW,316,6.0,6.0,82,0.00,,,0.00,0,Wunderground v.1.15,2013-11-08 05:10:00,
2013-11-08 00:15:00,69.3,63.2,29.95,North,355,7.0,7.0,81,0.00,,,0.00,0,Wunderground v.1.15,2013-11-08 05:15:00,
2013-11-08 00:20:00,69.3,62.9,29.95,NW,324,6.0,6.0,80,0.00,,,0.00,0,Wunderground v.1.15,2013-11-08 05:20:00,
2013-11-08 00:25:00,69.3,62.9,29.95,NNW,338,6.0,6.0,80,0.00,,,0.00,0,Wunderground v.1.15,2013-11-08 05:25:00,
2013-11-08 00:30:00,69.3,62.5,29.95,NNW,327,6.0,6.0,79,0.00,,,0.00,0,Wunderground v.1.15,2013-11-08 05:30:00,
2013-11-08 00:35:00,69.3,62.5,29.95,North,5,5.0,6.0,79,0.00,,,0.00,0,Wunderground v.1.15,2013-11-08 05:35:00,
2013-11-08 00:40:00,69.1,62.3,29.95,NW,315,5.0,6.0,79,0.00,,,0.00,0,Wunderground v.1.15,2013-11-08 05:40:00,
2013-11-08 00:50:00,69.1,62.3,29.95,NW,308,5.0,7.0,79,0.00,,,0.00,0,Wunderground v.1.15,2013-11-08 05:50:00,
2013-11-08 01:00:00,68.9,62.1,29.96,NW,313,5.0,7.0,79,0.00,,,0.00,0,Wunderground v.1.15,2013-11-08 06:00:00,
2013-11-08 01:05:00,68.9,61.4,29.96,North,350,7.0,7.0,77,0.00,,,0.00,0,Wunderground v.1.15,2013-11-08 06:05:00,
2013-11-08 01:15:00,68.8,60.6,29.96,North,360,9.0,9.0,75,0.00,,,0.00,0,Wunderground v.1.15,2013-11-08 06:15:00,
2013-11-08 01:25:00,68.6,60.7,29.96,NNW,328,8.0,9.0,76,0.00,,,0.00,0,Wunderground v.1.15,2013-11-08 06:25:00,
2013-11-08 01:30:00,68.6,60.7,29.96,NNW,329,7.0,7.0,76,0.00,,,0.00,0,Wunderground v.1.15,2013-11-08 06:30:00,
2013-11-08 01:40:00,68.4,60.9,29.96,NW,314,7.0,9.0,77,0.00,,,0.00,0,Wunderground v.1.15,2013-11-08 06:40:00,
2013-11-08 01:45:00,68.3,60.8,29.97,NNW,346,8.0,9.0,77,0.00,,,0.00,0,Wunderground v.1.15,2013-11-08 06:45:00,
2013-11-08 01:55:00,67.8,59.6,29.97,NW,321,9.0,10.0,75,0.00,,,0.00,0,Wunderground v.1.15,2013-11-08 06:55:00,
2013-11-08 02:05:00,67.1,57.4,29.97,NW,323,10.0,10.0,71,0.00,,,0.00,0,Wunderground v.1.15,2013-11-08 07:05:00,
2013-11-08 02:15:00,66.4,55.9,29.97,NW,312,11.0,11.0,69,0.00,,,0.00,0,Wunderground v.1.15,2013-11-08 07:15:00,
2013-11-08 02:25:00,65.6,51.8,29.97,NNW,327,11.0,14.0,61,0.00,,,0.00,0,Wunderground v.1.15,2013-11-08 07:25:00,
2013-11-08 02:35:00,65.0,50.8,29.98,North,5,11.0,12.0,60,0.00,,,0.00,0,Wunderground v.1.15,2013-11-08 07:35:00,
2013-11-08 02:40:00,64.7,50.0,29.98,NNW,344,10.0,10.0,59,0.00,,,0.00,0,Wunderground v.1.15,2013-11-08 07:40:00,
2013-11-08 02:45:00,64.3,49.7,29.98,NNW,338,9.0,10.0,59,0.00,,,0.00,0,Wunderground v.1.15,2013-11-08 07:45:00,
2013-11-08 02:55:00,63.9,49.7,29.98,NW,326,7.0,7.0,60,0.00,,,0.00,0,Wunderground v.1.15,2013-11-08 07:55:00,
2013-11-08 03:00:00,63.5,48.9,29.98,NW,306,7.0,7.0,59,0.00,,,0.00,0,Wunderground v.1.15,2013-11-08 08:00:00,
2013-11-08 03:05:00,63.2,49.1,29.98,NNW,337,6.0,9.0,60,0.00,,,0.00,0,Wunderground v.1.15,2013-11-08 08:05:00,
2013-11-08 03:15:00,62.9,48.3,29.99,NW,311,7.0,7.0,59,0.00,,,0.00,0,Wunderground v.1.15,2013-11-08 08:15:00,
2013-11-08 03:20:00,62.6,48.1,29.99,NW,323,9.0,9.0,59,0.00,,,0.00,0,Wunderground v.1.15,2013-11-08 08:20:00,
2013-11-08 03:30:00,62.1,48.5,29.99,North,351,8.0,8.0,61,0.00,,,0.00,0,Wunderground v.1.15,2013-11-08 08:30:00,
2013-11-08 03:40:00,61.8,47.8,29.99,WNW,303,8.0,10.0,60,0.00,,,0.00,0,Wunderground v.1.15,2013-11-08 08:40:00,
2013-11-08 03:50:00,61.3,47.3,30.00,NW,314,9.0,9.0,60,0.00,,,0.00,0,Wunderground v.1.15,2013-11-08 08:50:00,
2013-11-08 03:55:00,61.2,48.5,30.00,NW,323,8.0,9.0,63,0.00,,,0.00,0,Wunderground v.1.15,2013-11-08 08:55:00,
2013-11-08 04:05:00,60.7,47.6,29.99,NNW,333,7.0,10.0,62,0.00,,,0.00,0,Wunderground v.1.15,2013-11-08 09:05:00,
2013-11-08 04:15:00,60.1,47.0,30.00,WNW,301,8.0,13.0,62,0.00,,,0.00,0,Wunderground v.1.15,2013-11-08 09:15:00,
2013-11-08 04:20:00,59.8,46.3,30.00,NW,323,10.0,13.0,61,0.00,,,0.00,0,Wunderground v.1.15,2013-11-08 09:20:00,
2013-11-08 04:30:00,59.5,47.7,30.01,WNW,294,10.0,10.0,65,0.00,,,0.00,0,Wunderground v.1.15,2013-11-08 09:30:00,
2013-11-08 04:35:00,59.3,46.3,30.01,NW,315,10.0,10.0,62,0.00,,,0.00,0,Wunderground v.1.15,2013-11-08 09:35:00,
2013-11-08 04:45:00,58.6,45.6,30.01,NNW,342,10.0,13.0,62,0.00,,,0.00,0,Wunderground v.1.15,2013-11-08 09:45:00,
2013-11-08 04:50:00,58.4,46.3,30.01,NW,307,10.0,13.0,64,0.00,,,0.00,0,Wunderground v.1.15,2013-11-08 09:50:00,
2013-11-08 05:00:00,58.0,45.5,30.02,North,355,11.0,14.0,63,0.00,,,0.00,0,Wunderground v.1.15,2013-11-08 10:00:00,
2013-11-08 05:05:00,57.6,44.7,30.02,NW,319,11.0,14.0,62,0.00,,,0.00,0,Wunderground v.1.15,2013-11-08 10:05:00,
2013-11-08 05:15:00,57.2,44.3,30.02,NW,317,9.0,10.0,62,0.00,,,0.00,0,Wunderground v.1.15,2013-11-08 10:15:00,
2013-11-08 05:25:00,57.2,44.7,30.02,NNW,335,7.0,9.0,63,0.00,,,0.00,0,Wunderground v.1.15,2013-11-08 10:25:00,
2013-11-08 05:30:00,57.2,45.5,30.03,NNW,329,7.0,7.0,65,0.00,,,0.00,0,Wunderground v.1.15,2013-11-08 10:30:00,
2013-11-08 05:40:00,57.0,45.7,30.03,NNW,327,5.0,5.0,66,0.00,,,0.00,0,Wunderground v.1.15,2013-11-08 10:40:00,
2013-11-08 05:50:00,56.6,45.0,30.03,North,360,6.0,9.0,65,0.00,,,0.00,0,Wunderground v.1.15,2013-11-08 10:50:00,
2013-11-08 06:00:00,56.2,45.0,30.04,NNW,341,6.0,8.0,66,0.00,,,0.00,0,Wunderground v.1.15,2013-11-08 11:00:00,
2013-11-08 06:05:00,55.9,45.5,30.04,NNW,335,6.0,8.0,68,0.00,,,0.00,0,Wunderground v.1.15,2013-11-08 11:05:00,
2013-11-08 06:15:00,55.6,45.2,30.04,NNW,333,6.0,9.0,68,0.00,,,0.00,0,Wunderground v.1.15,2013-11-08 11:15:00,
2013-11-08 06:25:00,55.1,44.7,30.04,NNW,338,5.0,7.0,68,0.00,,,0.00,0,Wunderground v.1.15,2013-11-08 11:25:00,
2013-11-08 06:35:00,54.8,45.2,30.05,North,5,4.0,4.0,70,0.00,,,0.00,0,Wunderground v.1.15,2013-11-08 11:35:00,
2013-11-08 06:45:00,54.5,44.9,30.05,NNW,333,5.0,6.0,70,0.00,,,0.00,0,Wunderground v.1.15,2013-11-08 11:45:00,
2013-11-08 06:55:00,54.7,46.2,30.05,North,5,5.0,5.0,73,0.00,,,0.00,0,Wunderground v.1.15,2013-11-08 11:55:00,
2013-11-08 07:00:00,54.7,45.8,30.05,NW,323,5.0,5.0,72,0.00,,,0.00,0,Wunderground v.1.15,2013-11-08 12:00:00,
2013-11-08 07:05:00,54.5,45.3,30.05,NNW,331,5.0,5.0,71,0.00,,,0.00,0,Wunderground v.1.15,2013-11-08 12:05:00,
2013-11-08 07:15:00,54.5,46.0,30.05,NNW,341,5.0,6.0,73,0.00,,,0.00,0,Wunderground v.1.15,2013-11-08 12:15:00,
2013-11-08 07:20:00,54.5,46.0,30.05,NNW,335,5.0,12.0,73,0.00,,,0.00,0,Wunderground v.1.15,2013-11-08 12:20:00,
2013-11-08 07:30:00,54.7,45.8,30.06,NW,304,6.0,6.0,72,0.00,,,0.00,0,Wunderground v.1.15,2013-11-08 12:30:00,
2013-11-08 07:40:00,55.0,46.9,30.06,NNW,334,6.0,13.0,74,0.00,,,0.00,0,Wunderground v.1.15,2013-11-08 12:40:00,
2013-11-08 07:45:00,55.0,46.9,30.06,NNW,343,6.0,13.0,74,0.00,,,0.00,0,Wunderground v.1.15,2013-11-08 12:45:00,
2013-11-08 07:50:00,55.1,47.0,30.06,NNE,25,7.0,7.0,74,0.00,,,0.00,0,Wunderground v.1.15,2013-11-08 12:50:00,
2013-11-08 08:00:00,55.7,47.5,30.06,NNW,329,7.0,13.0,74,0.00,,,0.00,0,Wunderground v.1.15,2013-11-08 13:00:00,
2013-11-08 08:05:00,55.9,48.1,30.06,NW,321,7.0,13.0,75,0.00,,,0.00,0,Wunderground v.1.15,2013-11-08 13:05:00,
2013-11-08 08:15:00,56.2,48.4,30.07,NNW,328,8.0,8.0,75,0.00,,,0.00,51,Wunderground v.1.15,2013-11-08 13:15:00,
2013-11-08 08:20:00,56.5,48.7,30.07,NW,325,9.0,9.0,75,0.00,,,0.00,206,Wunderground v.1.15,2013-11-08 13:20:00,
2013-11-08 08:30:00,56.9,49.1,30.07,NW,325,7.0,8.0,75,0.00,,,0.00,244,Wunderground v.1.15,2013-11-08 13:30:00,
2013-11-08 08:40:00,57.0,48.8,30.07,NNW,327,8.0,9.0,74,0.00,,,0.00,290,Wunderground v.1.15,2013-11-08 13:40:00,
2013-11-08 08:45:00,57.3,49.1,30.07,NW,325,6.0,9.0,74,0.00,,,0.00,308,Wunderground v.1.15,2013-11-08 13:45:00,
2013-11-08 08:55:00,58.0,49.4,30.07,NNW,328,7.0,9.0,73,0.00,,,0.00,345,Wunderground v.1.15,2013-11-08 13:55:00,
2013-11-08 09:05:00,58.6,49.6,30.08,NW,307,7.0,7.0,72,0.00,,,0.00,374,Wunderground v.1.15,2013-11-08 14:05:00,
2013-11-08 09:15:00,59.2,50.5,30.08,NNW,334,8.0,8.0,73,0.00,,,0.00,401,Wunderground v.1.15,2013-11-08 14:15:00,
2013-11-08 09:25:00,60.2,51.1,30.08,NNW,333,7.0,10.0,72,0.00,,,0.00,432,Wunderground v.1.15,2013-11-08 14:25:00,
2013-11-08 09:35:00,61.6,52.1,30.08,NNW,327,7.0,12.0,71,0.00,,,0.00,459,Wunderground v.1.15,2013-11-08 14:35:00,
2013-11-08 09:45:00,62.6,53.1,30.09,NNE,28,7.0,10.0,71,0.00,,,0.00,483,Wunderground v.1.15,2013-11-08 14:45:00,
2013-11-08 09:50:00,63.1,53.2,30.09,North,9,7.0,9.0,70,0.00,,,0.00,499,Wunderground v.1.15,2013-11-08 14:50:00,
2013-11-08 10:00:00,63.9,53.5,30.09,NW,313,6.0,6.0,69,0.00,,,0.00,512,Wunderground v.1.15,2013-11-08 15:00:00,
2013-11-08 10:05:00,64.3,54.3,30.09,WSW,244,5.0,6.0,70,0.00,,,0.00,626,Wunderground v.1.15,2013-11-08 15:05:00,
2013-11-08 10:15:00,64.8,54.8,30.09,North,360,6.0,13.0,70,0.00,,,0.00,434,Wunderground v.1.15,2013-11-08 15:15:00,
2013-11-08 10:25:00,65.0,55.0,30.09,NNW,334,5.0,13.0,70,0.00,,,0.00,417,Wunderground v.1.15,2013-11-08 15:25:00,
2013-11-08 10:30:00,65.3,54.9,30.09,NE,42,7.0,10.0,69,0.00,,,0.00,844,Wunderground v.1.15,2013-11-08 15:30:00,
2013-11-08 10:40:00,65.2,54.8,30.09,North,11,10.0,10.0,69,0.00,,,0.00,318,Wunderground v.1.15,2013-11-08 15:40:00,
2013-11-08 10:50:00,65.3,54.9,30.09,NW,325,8.0,12.0,69,0.00,,,0.00,327,Wunderground v.1.15,2013-11-08 15:50:00,
2013-11-08 10:55:00,65.2,54.8,30.09,North,355,8.0,12.0,69,0.00,,,0.00,304,Wunderground v.1.15,2013-11-08 15:55:00,
2013-11-08 11:05:00,65.0,54.6,30.09,North,355,9.0,10.0,69,0.00,,,0.00,417,Wunderground v.1.15,2013-11-08 16:05:00,
2013-11-08 11:15:00,64.5,54.5,30.09,North,355,10.0,11.0,70,0.00,,,0.00,436,Wunderground v.1.15,2013-11-08 16:15:00,
2013-11-08 11:25:00,64.5,54.5,30.09,NW,321,7.0,15.0,70,0.00,,,0.00,336,Wunderground v.1.15,2013-11-08 16:25:00,
2013-11-08 11:35:00,64.0,53.6,30.09,North,5,8.0,8.0,69,0.00,,,0.00,323,Wunderground v.1.15,2013-11-08 16:35:00,
2013-11-08 11:45:00,64.3,53.9,30.10,NNE,24,8.0,8.0,69,0.00,,,0.00,336,Wunderground v.1.15,2013-11-08 16:45:00,
2013-11-08 11:55:00,65.0,53.8,30.10,East,97,9.0,10.0,67,0.00,,,0.00,264,Wunderground v.1.15,2013-11-08 16:55:00,
2013-11-08 12:00:00,65.2,54.8,30.09,NNW,347,7.0,11.0,69,0.00,,,0.00,807,Wunderground v.1.15,2013-11-08 17:00:00,
2013-11-08 12:05:00,65.8,54.1,30.09,NNE,33,7.0,11.0,66,0.00,,,0.00,914,Wunderground v.1.15,2013-11-08 17:05:00,
2013-11-08 12:15:00,65.3,53.6,30.09,NE,49,7.0,8.0,66,0.00,,,0.00,930,Wunderground v.1.15,2013-11-08 17:15:00,
2013-11-08 12:25:00,65.8,53.7,30.09,NNE,19,7.0,7.0,65,0.00,,,0.00,329,Wunderground v.1.15,2013-11-08 17:25:00,
2013-11-08 12:30:00,65.5,53.8,30.08,NW,306,8.0,8.0,66,0.00,,,0.00,325,Wunderground v.1.15,2013-11-08 17:30:00,
2013-11-08 12:40:00,65.0,53.4,30.08,North,5,7.0,9.0,66,0.00,,,0.00,417,Wunderground v.1.15,2013-11-08 17:40:00,
2013-11-08 12:45:00,65.0,53.4,30.08,NNE,28,8.0,12.0,66,0.00,,,0.00,466,Wunderground v.1.15,2013-11-08 17:45:00,
2013-11-08 12:55:00,64.8,53.2,30.08,NNW,327,9.0,11.0,66,0.00,,,0.00,352,Wunderground v.1.15,2013-11-08 17:55:00,
2013-11-08 13:05:00,65.3,53.2,30.07,NNW,331,9.0,12.0,65,0.00,,,0.00,786,Wunderground v.1.15,2013-11-08 18:05:00,
2013-11-08 13:15:00,65.2,52.7,30.07,NNE,19,8.0,10.0,64,0.00,,,0.00,744,Wunderground v.1.15,2013-11-08 18:15:00,
2013-11-08 13:25:00,65.5,52.6,30.07,NNW,347,8.0,11.0,63,0.00,,,0.00,276,Wunderground v.1.15,2013-11-08 18:25:00,
2013-11-08 13:35:00,65.6,53.5,30.07,NNW,329,10.0,12.0,65,0.00,,,0.00,446,Wunderground v.1.15,2013-11-08 18:35:00,
2013-11-08 13:45:00,65.3,53.2,30.08,North,355,7.0,10.0,65,0.00,,,0.00,457,Wunderground v.1.15,2013-11-08 18:45:00,
2013-11-08 13:50:00,64.8,53.6,30.08,North,351,7.0,12.0,67,0.00,,,0.00,387,Wunderground v.1.15,2013-11-08 18:50:00,
2013-11-08 14:00:00,64.3,53.5,30.08,NW,326,9.0,9.0,68,0.00,,,0.00,647,Wunderground v.1.15,2013-11-08 19:00:00,
2013-11-08 14:05:00,64.5,53.7,30.08,NW,313,10.0,14.0,68,0.00,,,0.00,374,Wunderground v.1.15,2013-11-08 19:05:00,
2013-11-08 14:15:00,64.5,53.7,30.08,NNW,329,7.0,9.0,68,0.00,,,0.00,452,Wunderground v.1.15,2013-11-08 19:15:00,
2013-11-08 14:20:00,64.2,53.4,30.08,NNE,20,7.0,7.0,68,0.00,,,0.00,374,Wunderground v.1.15,2013-11-08 19:20:00,
2013-11-08 14:30:00,63.7,52.9,30.08,NW,324,10.0,15.0,68,0.00,,,0.00,287,Wunderground v.1.15,2013-11-08 19:30:00,
2013-11-08 14:40:00,63.7,53.3,30.08,NNW,332,8.0,8.0,69,0.00,,,0.00,264,Wunderground v.1.15,2013-11-08 19:40:00,
2013-11-08 14:50:00,63.5,53.5,30.08,NE,49,8.0,8.0,70,0.00,,,0.00,269,Wunderground v.1.15,2013-11-08 19:50:00,
2013-11-08 14:55:00,63.7,53.7,30.08,NNW,348,7.0,11.0,70,0.00,,,0.00,257,Wunderground v.1.15,2013-11-08 19:55:00,
2013-11-08 15:05:00,63.7,53.3,30.07,NNE,14,8.0,10.0,69,0.00,,,0.00,214,Wunderground v.1.15,2013-11-08 20:05:00,
2013-11-08 15:15:00,63.7,53.7,30.07,ESE,102,5.0,7.0,70,0.00,,,0.00,206,Wunderground v.1.15,2013-11-08 20:15:00,
2013-11-08 15:25:00,63.5,53.1,30.07,NNE,16,8.0,15.0,69,0.00,,,0.00,186,Wunderground v.1.15,2013-11-08 20:25:00,
2013-11-08 15:35:00,63.2,52.9,30.07,NW,323,8.0,9.0,69,0.00,,,0.00,209,Wunderground v.1.15,2013-11-08 20:35:00,
2013-11-08 15:45:00,63.5,53.1,30.07,NNW,332,6.0,7.0,69,0.00,,,0.00,394,Wunderground v.1.15,2013-11-08 20:45:00,
2013-11-08 15:50:00,63.5,52.7,30.07,NW,309,6.0,6.0,68,0.00,,,0.00,181,Wunderground v.1.15,2013-11-08 20:50:00,
2013-11-08 16:00:00,63.5,53.5,30.08,NNW,334,6.0,7.0,70,0.00,,,0.00,250,Wunderground v.1.15,2013-11-08 21:00:00,
2013-11-08 16:05:00,63.7,52.9,30.08,North,360,6.0,7.0,68,0.00,,,0.00,295,Wunderground v.1.15,2013-11-08 21:05:00,
2013-11-08 16:15:00,63.7,52.9,30.08,NNW,336,6.0,6.0,68,0.00,,,0.00,207,Wunderground v.1.15,2013-11-08 21:15:00,
2013-11-08 16:20:00,63.7,53.3,30.08,North,10,6.0,6.0,69,0.00,,,0.00,257,Wunderground v.1.15,2013-11-08 21:20:00,
2013-11-08 16:30:00,63.4,53.0,30.08,NNW,338,5.0,6.0,69,0.00,,,0.00,149,Wunderground v.1.15,2013-11-08 21:30:00,
2013-11-08 16:40:00,63.2,52.9,30.08,NNW,330,7.0,9.0,69,0.00,,,0.00,200,Wunderground v.1.15,2013-11-08 21:40:00,
2013-11-08 16:45:00,63.2,53.3,30.08,NNW,328,7.0,11.0,70,0.00,,,0.00,165,Wunderground v.1.15,2013-11-08 21:45:00,
2013-11-08 16:55:00,63.2,53.6,30.08,NNW,336,7.0,7.0,71,0.00,,,0.00,114,Wunderground v.1.15,2013-11-08 21:55:00,
2013-11-08 17:05:00,62.7,53.2,30.08,NNE,16,6.0,6.0,71,0.00,,,0.00,76,Wunderground v.1.15,2013-11-08 22:05:00,
2013-11-08 17:15:00,62.4,53.3,30.09,NW,308,5.0,5.0,72,0.00,,,0.00,46,Wunderground v.1.15,2013-11-08 22:15:00,
2013-11-08 17:25:00,62.1,53.3,30.09,North,360,5.0,5.0,73,0.00,,,0.00,14,Wunderground v.1.15,2013-11-08 22:25:00,
2013-11-08 17:35:00,61.6,53.2,30.09,NNE,18,3.0,4.0,74,0.00,,,0.00,0,Wunderground v.1.15,2013-11-08 22:35:00,
2013-11-08 17:45:00,61.3,52.9,30.09,North,5,3.0,3.0,74,0.00,,,0.00,0,Wunderground v.1.15,2013-11-08 22:45:00,
2013-11-08 17:50:00,61.2,53.2,30.09,NNE,19,3.0,5.0,75,0.00,,,0.00,0,Wunderground v.1.15,2013-11-08 22:50:00,
2013-11-08 18:00:00,60.9,53.3,30.09,North,360,2.0,2.0,76,0.00,,,0.00,0,Wunderground v.1.15,2013-11-08 23:00:00,
2013-11-08 18:05:00,60.9,53.3,30.09,North,355,3.0,3.0,76,0.00,,,0.00,0,Wunderground v.1.15,2013-11-08 23:05:00,
2013-11-08 18:15:00,60.5,52.9,30.09,NNW,337,3.0,3.0,76,0.00,,,0.00,0,Wunderground v.1.15,2013-11-08 23:15:00,
2013-11-08 18:20:00,60.4,52.8,30.09,North,5,3.0,3.0,76,0.00,,,0.00,0,Wunderground v.1.15,2013-11-08 23:20:00,
2013-11-08 18:30:00,60.2,53.0,30.09,NNW,335,3.0,3.0,77,0.00,,,0.00,0,Wunderground v.1.15,2013-11-08 23:30:00,
2013-11-08 18:35:00,60.2,52.6,30.09,North,360,4.0,4.0,76,0.00,,,0.00,0,Wunderground v.1.15,2013-11-08 23:35:00,
2013-11-08 18:45:00,60.4,53.2,30.10,NNW,339,2.0,4.0,77,0.00,,,0.00,0,Wunderground v.1.15,2013-11-08 23:45:00,
2013-11-08 18:55:00,60.2,53.0,30.10,NNE,20,3.0,3.0,77,0.00,,,0.00,0,Wunderground v.1.15,2013-11-08 23:55:00,
2013-11-08 19:05:00,59.9,52.7,30.10,NNE,13,3.0,3.0,77,0.00,,,0.00,0,Wunderground v.1.15,2013-11-09 00:05:00,
2013-11-08 19:15:00,59.9,52.7,30.10,NNW,344,2.0,3.0,77,0.00,,,0.00,0,Wunderground v.1.15,2013-11-09 00:15:00,
2013-11-08 19:25:00,60.1,52.5,30.10,NNE,24,3.0,5.0,76,0.00,,,0.00,0,Wunderground v.1.15,2013-11-09 00:25:00,
2013-11-08 19:35:00,60.2,53.0,30.11,ENE,63,3.0,4.0,77,0.00,,,0.00,0,Wunderground v.1.15,2013-11-09 00:35:00,
2013-11-08 19:45:00,60.2,52.6,30.11,North,5,3.0,3.0,76,0.00,,,0.00,0,Wunderground v.1.15,2013-11-09 00:45:00,
2013-11-08 19:50:00,60.4,53.2,30.11,North,5,3.0,4.0,77,0.00,,,0.00,0,Wunderground v.1.15,2013-11-09 00:50:00,
2013-11-08 20:00:00,60.2,53.0,30.11,NNW,340,3.0,3.0,77,0.00,,,0.00,0,Wunderground v.1.15,2013-11-09 01:00:00,
2013-11-08 20:05:00,60.2,53.0,30.11,NNW,346,3.0,4.0,77,0.00,,,0.00,0,Wunderground v.1.15,2013-11-09 01:05:00,
2013-11-08 20:15:00,60.2,53.0,30.11,NW,325,3.0,4.0,77,0.00,,,0.00,0,Wunderground v.1.15,2013-11-09 01:15:00,
2013-11-08 20:20:00,60.1,52.9,30.11,North,355,3.0,3.0,77,0.00,,,0.00,0,Wunderground v.1.15,2013-11-09 01:20:00,
2013-11-08 20:30:00,59.8,52.9,30.11,North,11,2.0,2.0,78,0.00,,,0.00,0,Wunderground v.1.15,2013-11-09 01:30:00,
2013-11-08 20:40:00,59.6,53.1,30.11,NNW,345,2.0,3.0,79,0.00,,,0.00,0,Wunderground v.1.15,2013-11-09 01:40:00,
2013-11-08 20:45:00,59.5,53.0,30.12,North,5,2.0,4.0,79,0.00,,,0.00,0,Wunderground v.1.15,2013-11-09 01:45:00,
2013-11-08 20:55:00,59.2,53.0,30.12,North,5,2.0,2.0,80,0.00,,,0.00,0,Wunderground v.1.15,2013-11-09 01:55:00,
2013-11-08 21:05:00,59.0,53.2,30.12,North,355,2.0,2.0,81,0.00,,,0.00,0,Wunderground v.1.15,2013-11-09 02:05:00,
2013-11-08 21:15:00,58.9,53.1,30.12,North,355,2.0,2.0,81,0.00,,,0.00,0,Wunderground v.1.15,2013-11-09 02:15:00,
2013-11-08 21:25:00,58.7,52.9,30.12,North,355,1.0,1.0,81,0.00,,,0.00,0,Wunderground v.1.15,2013-11-09 02:25:00,
2013-11-08 21:35:00,58.7,53.2,30.12,North,355,1.0,1.0,82,0.00,,,0.00,0,Wunderground v.1.15,2013-11-09 02:35:00,
2013-11-08 21:40:00,58.6,53.1,30.12,NNW,341,1.0,1.0,82,0.00,,,0.00,0,Wunderground v.1.15,2013-11-09 02:40:00,
2013-11-08 21:50:00,58.3,53.2,30.12,NNW,342,1.0,1.0,83,0.00,,,0.00,0,Wunderground v.1.15,2013-11-09 02:50:00,
2013-11-08 22:00:00,58.1,53.0,30.12,NNW,342,1.0,1.0,83,0.00,,,0.00,0,Wunderground v.1.15,2013-11-09 03:00:00,
2013-11-08 22:05:00,58.3,53.2,30.12,North,355,1.0,1.0,83,0.00,,,0.00,0,Wunderground v.1.15,2013-11-09 03:05:00,
2013-11-08 22:15:00,58.3,53.2,30.12,North,355,2.0,4.0,83,0.00,,,0.00,0,Wunderground v.1.15,2013-11-09 03:15:00,
2013-11-08 22:20:00,58.1,53.0,30.12,North,355,2.0,2.0,83,0.00,,,0.00,0,Wunderground v.1.15,2013-11-09 03:20:00,
2013-11-08 22:30:00,58.3,53.2,30.12,North,355,1.0,2.0,83,0.00,,,0.00,0,Wunderground v.1.15,2013-11-09 03:30:00,
2013-11-08 22:40:00,58.1,53.3,30.12,North,355,1.0,1.0,84,0.00,,,0.00,0,Wunderground v.1.15,2013-11-09 03:40:00,
2013-11-08 22:45:00,58.0,53.2,30.11,North,355,0.0,1.0,84,0.00,,,0.00,0,Wunderground v.1.15,2013-11-09 03:45:00,
2013-11-08 22:55:00,58.0,53.2,30.11,North,349,1.0,2.0,84,0.00,,,0.00,0,Wunderground v.1.15,2013-11-09 03:55:00,
2013-11-08 23:05:00,58.1,53.3,30.11,North,349,0.0,1.0,84,0.00,,,0.00,0,Wunderground v.1.15,2013-11-09 04:05:00,
2013-11-08 23:15:00,58.1,53.6,30.11,North,349,0.0,1.0,85,0.00,,,0.00,0,Wunderground v.1.15,2013-11-09 04:15:00,
2013-11-08 23:25:00,58.0,53.5,30.11,North,349,0.0,0.0,85,0.00,,,0.00,0,Wunderground v.1.15,2013-11-09 04:25:00,
2013-11-08 23:35:00,58.0,53.5,30.10,North,349,1.0,1.0,85,0.00,,,0.00,0,Wunderground v.1.15,2013-11-09 04:35:00,
2013-11-08 23:45:00,57.8,53.3,30.10,North,349,1.0,1.0,85,0.00,,,0.00,0,Wunderground v.1.15,2013-11-09 04:45:00,
2013-11-08 23:50:00,57.5,53.3,30.10,North,349,0.0,0.0,86,0.00,,,0.00,0,Wunderground v.1.15,2013-11-09 04:50:00,